METEOR 1-5

Satellite information

Favourite Embed

Satellite Type and Status

PAYLOADIN ORBIT

Key statistics

Satellite METEOR 1-5 at a glance.

Uptime

20101

Days in orbit

Revolutions

≈ 14.2

Per day

Orbit

LEO

Low Earth Orbit

Inclination

81.2

Latest

Satellite identification and parameters

Extended collection of information and parameters for METEOR 1-5.

Object identification

Identified? True

Debris? False

Object name: METEOR 1-5

International designator: 1970-047A

Object number (NORAD): 4419

Object ID (CCSDS): 4419

Country: COMMONWEALTH OF INDEPENDENT STATES (CIS)

Current information (Y/N): Y

RCS size: LARGE

Orbital parameters

Period: 101.689 minutes

Inclination: 81.2151 deg

SMA: 7216.773 km

Apoapsis: 866.604 km

Periapsis: 810.673 km

RAAN: 218.5553 deg

Eccentricy: 0.0038751

Argument of periapsis: 328.6318 deg

Mean anomaly: 31.2544 deg

Mean motion: 14.16081228 rev/day

Mean motion (dot): 0.00000037 rev/day2

B* drag term: 0.000012292 1/REarth

Two-line elements (TLE)

Creation date: July 4, 2025, 6:39 p.m.

Reference frame: TEME

Reference center: EARTH

Epoch: July 4, 2025, 2:18 p.m. UTC

TLE line 0: 0 METEOR 1-5

TLE line 1: 1 04419U 70047A 25185.59634487 .00000037 00000-0 12292-4 0 9993

TLE line 2: 2 04419 81.2151 218.5553 0038751 328.6318 31.2544 14.16081228839543

Live tracking on map

Real-time ground track for satellite METEOR 1-5.

In-orbit conjunctions

A list of the most updated potential collisions computed for object METEOR 1-5.

Target Orbit TCA Probability of collision Miss distance Type
DELTA 1 DEB SSO 2025-04-20 06:10:53 0.0007145222 161.0 (m) DEBRIS
DELTA 1 DEB SSO 2025-02-18 18:33:39 0.0004317607 350.0 (m) DEBRIS
CZ-6A DEB SSO 2024-10-16 15:10:26 0.0001092784 306.0 (m) DEBRIS
CZ-6A DEB SSO 2024-10-13 17:35:17 0.003690057 59.0 (m) DEBRIS
FENGYUN 1C DEB SSO 2024-09-22 22:11:07 0.000738426 114.0 (m) DEBRIS

Associated space launch

The Meteor-1 series was the first series of Soviet meteorological satellites.

METEOR 1-5 was lifted into orbit during the mission ‘Vostok 8A92M | Meteor-1 5 (17L)’, on board a Vostok 8A92M space rocket.

The launch took place on June 23, 1970, 2:15 p.m. from 41/1.

For more information about the launch, click the button.

Launch to space Vostok 8A92M | Meteor-1 5 (17L)
Vostok 8A92M | Meteor-1 5 (17L)

Agency: N/A

Status: Launch Successful

Launch date: June 23, 1970, 2:15 p.m. UTC

Rocket: Vostok 8A92M

Launch pad: 41/1

Location: Plesetsk Cosmodrome, Russian Federation

...

Latest news about this satellite

There are no fresh news available about this satellite. Check back as we update our databases every day.


Newsletter sign-up

Weekly statistics, charts and insights to help you stay on top of the space industry.